Location: Home
(42.5358°N, 72.7383°W)
Time: 08:59:49
(UTC-05:00)

Transit 4A - Pass Details

Date: 30 November 2021
Orbit: 864 x 981 km, 66.8° (Epoch: 21 January)

Event Time Altitude Azimuth Distance (km) Brightness Sun altitude
Exits shadow 04:36:09 31° 344° (NNW) 1,603 8.9 -25.9°
Maximum altitude 04:39:12 65° 56° (ENE) 1,054 8.2 -25.4°
Drops below altitude 10° 04:45:31 10° 139° (SE) 2,718 11.0 -24.2°
Sets 04:48:07 0° 142° (SE) 3,667 11.7 -23.8°
